Location: La Pernelle
(49.6188°N, 1.2999°W)
Time: 08:36:49
(UTC+00:00)

Cosmos 1758 - Pass Details

Date: 12 June 2021
Orbit: 538 x 562 km, 82.5° (Epoch: 26 July)

Event Time Altitude Azimuth Distance (km) Brightness Sun altitude
Rises 20:52:30 0° 355° (N) 2,728 7.8 -5.6°
Reaches altitude 10° 20:54:47 10° 3° (N) 1,825 6.7 -5.8°
Maximum altitude 20:58:35 40° 74° (ENE) 808 4.0 -6.2°
Drops below altitude 10° 21:02:20 10° 145° (SE) 1,801 5.3 -6.6°
Enters shadow 21:02:41 - 147° (SSE) 1,940 5.4 -6.7°
